This is the latest recevied weather packets stored in our database for station/object KK7MLS-13. If no packets are shown the sender has not sent any weather packets the latest 10 day(s).
| Time | Temp. | Humidity | Pressure | Rain* | Wind** | Luminosity | Snow |
|---|---|---|---|---|---|---|---|
| 1788134118 | 27.22° C | 41% | 1017.6 hPa | 0 mm | - | 335 W/m² | - |
| 1788133813 | 27.22° C | 40% | 1017.4 hPa | 0 mm | - | 350 W/m² | - |
| 1788133508 | 27.22° C | 39% | 1017.5 hPa | 0 mm | - | 359 W/m² | - |
| 1788133198 | 27.22° C | 39% | 1017.5 hPa | 0 mm | - | 380 W/m² | - |
| 1788132893 | 26.67° C | 43% | 1017.8 hPa | 0 mm | - | 394 W/m² | - |
| 1788132588 | 26.11° C | 42% | 1017.7 hPa | 0 mm | - | 411 W/m² | - |
| 1788132284 | 26.67° C | 41% | 1017.8 hPa | 0 mm | - | 421 W/m² | - |
| 1788131981 | 26.67° C | 41% | 1017.6 hPa | 0 mm | - | 398 W/m² | - |
| 1788131675 | 26.67° C | 41% | 1017.9 hPa | 0 mm | - | 448 W/m² | - |
| 1788131375 | 25.56° C | 45% | 1017.9 hPa | 0 mm | - | 459 W/m² | - |
| 1788131070 | 26.11° C | 42% | 1018 hPa | 0 mm | - | 472 W/m² | - |
| 1788130770 | 26.67° C | 40% | 1018 hPa | 0 mm | - | 484 W/m² | - |
| 1788130465 | 26.67° C | 43% | 1018.1 hPa | 0 mm | - | 497 W/m² | - |
| 1788130160 | 26.11° C | 42% | 1018.1 hPa | 0 mm | - | 510 W/m² | - |
| 1788129858 | 26.11° C | 43% | 1018.3 hPa | 0 mm | - | 515 W/m² | - |
| 1788129555 | 26.11° C | 41% | 1018.4 hPa | 0 mm | - | 525 W/m² | - |
| 1788129252 | 25.56° C | 43% | 1018.5 hPa | 0 mm | - | 539 W/m² | - |
| 1788128950 | 26.11° C | 41% | 1018.5 hPa | 0 mm | - | 549 W/m² | - |
| 1788128646 | 26.11° C | 45% | 1018.7 hPa | 0 mm | - | 560 W/m² | - |
| 1788128342 | 25.56° C | 42% | 1018.7 hPa | 0 mm | - | 566 W/m² | - |
| 1788128038 | 25° C | 44% | 1018.7 hPa | 0 mm | - | 575 W/m² | - |
| 1788127734 | 25.56° C | 46% | 1018.9 hPa | 0 mm | - | 586 W/m² | - |
| 1788127433 | 25.56° C | 42% | 1019 hPa | 0 mm | - | 592 W/m² | - |
| 1788127131 | 25.56° C | 43% | 1018.9 hPa | 0 mm | - | 603 W/m² | - |
| 1788126831 | 25.56° C | 41% | 1019 hPa | 0 mm | - | 611 W/m² | - |
* Rain latest hour (hover to see other rain measurements)
** Current wind speed in m/s (hover to see current wind gust speed)